Weather History for Columbia Owens, SC

Change the Weather History Date:

Friday, April 4, 2014

  Actual Average Record
Temperature  
Mean Temperature 71 °F 62 °F  
Max Temperature 85 °F 74 °F 88 °F (2011)
Min Temperature 57 °F 50 °F 42 °F (2013)
Degree Days  
Heating Degree Days 0 5  
Month to date heating degree days 0 20  
Since 1 July heating degree days 2384 2223  
Cooling Degree Days 6 2  
Month to date cooling degree days 18 6  
Year to date cooling degree days 26 24  
Growing Degree Days 20 (Base 50)    
Moisture  
Dew Point 54 °F    
Average Humidity 56    
Maximum Humidity 86    
Minimum Humidity 34    
Precipitation  
Precipitation 0.00 in 0.11 in 1.09 in (2008)
Month to date precipitation 0.00 0.45  
Year to date precipitation 10.27 11.61  
Sea Level Pressure  
Sea Level Pressure 29.91 in    
Wind  
Wind Speed 9 mph (WSW)    
Max Wind Speed 23 mph    
Max Gust Speed 30 mph    
Visibility 10 miles    
Events      
T = Trace of Precipitation, MM = Missing Value Source: NWS Daily Summary

Daily Weather History Graph

Daily Weather History Graph

Search for Another Location

Airport:

Trip Planner

Search our weather history database for the weather conditions in past years. The results will help you decide how hot, cold, wet, or windy it might be!

Date:

Astronomy

Apr. 04, 2014 Rise Set
Actual Time 7:07 AM EDT 7:47 PM EDT
Civil Twilight 6:42 AM EDT 8:12 PM EDT
Nautical Twilight 6:12 AM EDT 8:42 PM EDT
Astronomical Twilight 5:42 AM EDT 9:12 PM EDT
Moon 10:32 AM EDT (4/4) No Moon Set
Length of Visible Light 13h 30m
Length of Day
12h 39m
Waxing Crescent, 25% of the Moon is Illuminated
Apr 4
Waxing Crescent
Apr 7
First Quarter
Apr 15
Full
Apr 22
Last Quarter
Apr 29
New

Hourly Weather History & Observations

Time (EDT) Temp. Heat Index Dew Point Humidity Pressure Visibility Wind Dir Wind Speed Gust Speed Precip Events Conditions
12:53 AM 68.0 °F - 52.0 °F 56% 29.97 in 10.0 mi SSW 4.6 mph - N/A   Clear
1:53 AM 66.9 °F - 54.0 °F 63% 29.95 in 10.0 mi South 4.6 mph - N/A   Clear
2:53 AM 64.0 °F - 55.0 °F 73% 29.95 in 10.0 mi Calm Calm - N/A   Clear
3:53 AM 62.1 °F - 54.0 °F 75% 29.94 in 10.0 mi Calm Calm - N/A   Clear
4:53 AM 59.0 °F - 54.0 °F 83% 29.94 in 10.0 mi Calm Calm - N/A   Clear
5:53 AM 57.9 °F - 54.0 °F 87% 29.94 in 10.0 mi Calm Calm - N/A   Clear
6:53 AM 57.0 °F - 53.1 °F 87% 29.93 in 10.0 mi Calm Calm - N/A   Clear
7:53 AM 57.0 °F - 53.1 °F 87% 29.95 in 9.0 mi Calm Calm - N/A   Clear
8:53 AM 64.0 °F - 55.0 °F 73% 29.95 in 10.0 mi South 5.8 mph - N/A   Clear
9:53 AM 70.0 °F - 57.0 °F 63% 29.94 in 10.0 mi WSW 10.4 mph 19.6 mph N/A   Clear
10:53 AM 73.9 °F - 57.0 °F 55% 29.95 in 10.0 mi WSW 10.4 mph - N/A   Clear
11:53 AM 77.0 °F - 50.0 °F 39% 29.97 in 10.0 mi West 20.7 mph 27.6 mph N/A   Partly Cloudy
12:53 PM 79.0 °F - 54.0 °F 42% 29.96 in 10.0 mi West 18.4 mph 27.6 mph N/A   Partly Cloudy
1:53 PM 81.0 °F 80.5 °F 54.0 °F 39% 29.95 in 10.0 mi West 18.4 mph 26.5 mph N/A   Scattered Clouds
2:53 PM 82.9 °F 81.9 °F 54.0 °F 37% 29.92 in 10.0 mi WSW 13.8 mph 24.2 mph N/A   Clear
3:53 PM 84.0 °F 82.5 °F 53.1 °F 34% 29.89 in 10.0 mi West 15.0 mph 24.2 mph N/A   Partly Cloudy
4:53 PM 84.9 °F 83.3 °F 54.0 °F 34% 29.86 in 10.0 mi SW 13.8 mph 20.7 mph N/A   Clear
5:53 PM 84.0 °F 82.6 °F 54.0 °F 35% 29.85 in 10.0 mi SW 10.4 mph 25.3 mph N/A   Clear
6:53 PM 82.0 °F 81.3 °F 54.0 °F 38% 29.84 in 10.0 mi SSW 12.7 mph - N/A   Clear
7:53 PM 79.0 °F - 55.0 °F 44% 29.82 in 10.0 mi SSW 10.4 mph - N/A   Clear
8:53 PM 78.1 °F - 55.0 °F 45% 29.83 in 10.0 mi SW 11.5 mph 20.7 mph N/A   Clear
9:53 PM 77.0 °F - 55.0 °F 47% 29.86 in 10.0 mi SW 9.2 mph - N/A   Clear
10:53 PM 75.9 °F - 55.0 °F 48% 29.88 in 10.0 mi West 10.4 mph - N/A   Partly Cloudy
11:53 PM 73.0 °F - 52.0 °F 48% 29.91 in 10.0 mi WNW 6.9 mph - N/A   Clear